Location: Cochran
(32.3868°N, 83.3546°W)
Time: 13:54:49
(UTC+00:00)

STARLINK-78 - Pass Details

Date: 18 February 2020
Orbit: 529 x 530 km, 53.0° (Epoch: 07 April)

Event Time Altitude Azimuth Distance (km) Brightness Sun altitude
Rises 23:43:11 0° 225° (SW) 2,649 8.1 -5.3°
Reaches altitude 10° 23:45:23 10° 226° (SW) 1,763 7.2 -5.7°
Maximum altitude 23:49:23 80° 313° (NW) 539 3.7 -6.6°
Drops below altitude 10° 23:53:24 10° 41° (NE) 1,773 5.8 -7.4°
Enters shadow 23:54:43 - 42° (NE) 2,295 6.3 -7.7°
